| time (UTC) | temp C | wind direction | speed KPH | gust KPH | rain 1hr cm | rain 24hr cm | rain mn cm | humidity % | barometer mb |
| 20260509032002 | 12 | 134 | 0.0 | 0.0 | 0.00 | 0.00 | 0.00 | ||
| 20260509031025 | 12 | 134 | 0.0 | 0.0 | 0.00 | 0.00 | 0.00 | ||
| 20260509030004 | 13 | 134 | 0.0 | 0.0 | 0.00 | 0.00 | 0.00 | ||
| 20260509025003 | 13 | 134 | 0.0 | 0.0 | 0.00 | 0.00 | 0.00 | ||
| 20260509024003 | 13 | 134 | 0.0 | 0.0 | 0.00 | 0.00 | 0.00 | ||
| 20260509023024 | 13 | 134 | 0.0 | 0.0 | 0.00 | 0.00 | 0.00 | ||
| 20260509022003 | 13 | 134 | 0.0 | 0.0 | 0.00 | 0.00 | 0.00 | ||
| 20260509021024 | 13 | 134 | 0.0 | 0.0 | 0.00 | 0.00 | 0.00 | ||
| 20260509020003 | 13 | 134 | 0.0 | 0.0 | 0.00 | 0.00 | 0.00 | ||
| 20260509015004 | 13 | 134 | 0.0 | 0.0 | 0.00 | 0.00 | 0.00 | ||
| 20260509014004 | 13 | 134 | 0.0 | 0.0 | 0.00 | 0.00 | 0.00 | ||
| 20260509013003 | 14 | 134 | 0.0 | 0.0 | 0.00 | 0.00 | 0.00 | ||
| 20260509012025 | 15 | 134 | 0.0 | 0.0 | 0.00 | 0.00 | 0.00 | ||
| 20260509011002 | 15 | 134 | 0.0 | 0.0 | 0.00 | 0.00 | 0.00 | ||
| 20260509010003 | 16 | 134 | 0.0 | 0.0 | 0.00 | 0.00 | 0.00 | ||
| 20260509005004 | 17 | 134 | 0.0 | 4.8 | 0.00 | 0.00 | 0.00 | ||
| 20260509004003 | 17 | 180 | 0.0 | 8.0 | 0.00 | 0.00 | 0.00 | ||
| 20260509003003 | 17 | 175 | 0.0 | 0.0 | 0.00 | 0.00 | 0.00 | ||
| 20260509002026 | 17 | 175 | 0.0 | 8.0 | 0.00 | 0.00 | 0.00 | ||
| 20260509001002 | 18 | 175 | 3.2 | 12.9 | 0.00 | 0.00 | 0.00 | ||
| 20260509000003 | 18 | 200 | 3.2 | 12.9 | 0.00 | 0.00 | 0.00 | ||
| 20260508235004 | 19 | 222 | 1.6 | 11.3 | 0.00 | 0.00 | 0.00 | ||
| 20260508234004 | 19 | 229 | 1.6 | 14.5 | 0.00 | 0.00 | 0.00 | ||
| 20260508233003 | 20 | 176 | 1.6 | 19.3 | 0.00 | 0.00 | 0.00 | ||
| 20260508232003 | 20 | 185 | 8.0 | 22.5 | 0.00 | 0.00 | 0.00 | ||
| 20260508231003 | 21 | 224 | 8.0 | 25.7 | 0.00 | 0.00 | 0.00 | ||
| 20260508230003 | 22 | 167 | 9.7 | 20.9 | 0.00 | 0.00 | 0.00 | ||
| 20260508225002 | 24 | 190 | 6.4 | 24.1 | 0.00 | 0.00 | 0.00 | ||
| 20260508224003 | 25 | 200 | 6.4 | 25.7 | 0.00 | 0.00 | 0.00 | ||
| 20260508223025 | 26 | 194 | 12.9 | 24.1 | 0.00 | 0.00 | 0.00 | ||
| 20260508222004 | 26 | 212 | 6.4 | 19.3 | 0.00 | 0.00 | 0.00 | ||
| 20260508221002 | 26 | 210 | 6.4 | 20.9 | 0.00 | 0.00 | 0.00 | ||
| 20260508220003 | 26 | 225 | 11.3 | 27.4 | 0.00 | 0.00 | 0.00 | ||
| 20260508215003 | 27 | 168 | 8.0 | 19.3 | 0.00 | 0.00 | 0.00 | ||
| 20260508214003 | 27 | 207 | 6.4 | 17.7 | 0.00 | 0.00 | 0.00 | ||
| 20260508213004 | 27 | 257 | 6.4 | 19.3 | 0.00 | 0.00 | 0.00 | ||
| 20260508212002 | 27 | 192 | 9.7 | 20.9 | 0.00 | 0.00 | 0.00 | ||
| 20260508211003 | 26 | 183 | 4.8 | 27.4 | 0.00 | 0.00 | 0.00 | ||
| 20260508210024 | 27 | 200 | 8.0 | 19.3 | 0.00 | 0.00 | 0.00 | ||
| 20260508205024 | 27 | 176 | 11.3 | 19.3 | 0.00 | 0.00 | 0.00 | ||
| 20260508203003 | 26 | 181 | 4.8 | 19.3 | 0.00 | 0.00 | 0.00 | ||
| 20260508202002 | 26 | 169 | 11.3 | 20.9 | 0.00 | 0.00 | 0.00 | ||
| 20260508201003 | 26 | 190 | 6.4 | 20.9 | 0.00 | 0.00 | 0.00 | ||
| 20260508200003 | 26 | 203 | 11.3 | 27.4 | 0.00 | 0.00 | 0.00 | ||
| 20260508195003 | 26 | 189 | 6.4 | 25.7 | 0.00 | 0.00 | 0.00 | ||
| 20260508194002 | 26 | 222 | 6.4 | 24.1 | 0.00 | 0.00 | 0.00 | ||
| 20260508193003 | 25 | 221 | 8.0 | 22.5 | 0.00 | 0.00 | 0.00 | ||
| 20260508192003 | 25 | 159 | 14.5 | 27.4 | 0.00 | 0.00 | 0.00 | ||
| 20260508191003 | 25 | 239 | 9.7 | 25.7 | 0.00 | 0.00 | 0.00 | ||
| 20260508190025 | 25 | 200 | 3.2 | 25.7 | 0.00 | 0.00 | 0.00 | ||
| 20260508185003 | 24 | 162 | 11.3 | 20.9 | 0.00 | 0.00 | 0.00 | ||
| 20260508184003 | 22 | 213 | 3.2 | 22.5 | 0.00 | 0.00 | 0.00 | ||
| 20260508183002 | 21 | 171 | 17.7 | 37.0 | 0.00 | 0.00 | 0.00 | ||
| 20260508182045 | 21 | 186 | 6.4 | 25.7 | 0.00 | 0.00 | 0.00 | ||
| 20260508181003 | 21 | 225 | 6.4 | 32.2 | 0.00 | 0.00 | 0.00 | ||
| 20260508180002 | 21 | 178 | 9.7 | 24.1 | 0.00 | 0.00 | 0.00 | ||
| 20260508175002 | 21 | 187 | 9.7 | 22.5 | 0.00 | 0.00 | 0.00 | ||
| 20260508174002 | 21 | 208 | 9.7 | 19.3 | 0.00 | 0.00 | 0.00 | ||
| 20260508173003 | 20 | 246 | 4.8 | 16.1 | 0.00 | 0.00 | 0.00 | ||
| 20260508172003 | 20 | 182 | 9.7 | 25.7 | 0.00 | 0.00 | 0.00 | ||
| 20260508171003 | 20 | 224 | 8.0 | 20.9 | 0.00 | 0.00 | 0.00 | ||
| 20260508170024 | 20 | 152 | 14.5 | 22.5 | 0.00 | 0.00 | 0.00 | ||
| 20260508165004 | 20 | 205 | 11.3 | 22.5 | 0.00 | 0.00 | 0.00 | ||
| 20260508164002 | 20 | 250 | 4.8 | 17.7 | 0.00 | 0.00 | 0.00 | ||
| 20260508163003 | 19 | 173 | 6.4 | 20.9 | 0.00 | 0.00 | 0.00 | ||
| 20260508162003 | 19 | 146 | 0.0 | 17.7 | 0.00 | 0.00 | 0.00 | ||
| 20260508161026 | 19 | 239 | 6.4 | 19.3 | 0.00 | 0.00 | 0.00 | ||
| 20260508160003 | 19 | 235 | 6.4 | 14.5 | 0.00 | 0.00 | 0.00 | ||
| 20260508155002 | 18 | 219 | 6.4 | 17.7 | 0.00 | 0.00 | 0.00 | ||
| 20260508154003 | 20 | 223 | 6.4 | 20.9 | 0.00 | 0.00 | 0.00 | ||
| 20260508153003 | 21 | 271 | 4.8 | 17.7 | 0.00 | 0.00 | 0.00 | ||
| 20260508152002 | 21 | 190 | 8.0 | 19.3 | 0.00 | 0.00 | 0.00 | ||
| 20260508151003 | 21 | 165 | 6.4 | 16.1 | 0.00 | 0.00 | 0.00 | ||
| 20260508150024 | 21 | 211 | 3.2 | 16.1 | 0.00 | 0.00 | 0.00 | ||
| 20260508145002 | 20 | 233 | 6.4 | 16.1 | 0.00 | 0.00 | 0.00 | ||
| 20260508144024 | 20 | 289 | 1.6 | 16.1 | 0.00 | 0.00 | 0.00 | ||
| 20260508143003 | 20 | 236 | 6.4 | 17.7 | 0.00 | 0.00 | 0.00 | ||
| 20260508142002 | 20 | 263 | 4.8 | 14.5 | 0.00 | 0.00 | 0.00 | ||
| 20260508141002 | 19 | 223 | 4.8 | 17.7 | 0.00 | 0.00 | 0.00 | ||
| 20260508140004 | 18 | 218 | 6.4 | 14.5 | 0.00 | 0.00 | 0.00 | ||
| 20260508135003 | 18 | 248 | 6.4 | 16.1 | 0.00 | 0.00 | 0.00 | ||
| 20260508134002 | 17 | 264 | 8.0 | 16.1 | 0.00 | 0.00 | 0.00 | ||
| 20260508133004 | 17 | 230 | 1.6 | 11.3 | 0.00 | 0.00 | 0.00 | ||
| 20260508132002 | 16 | 198 | 0.0 | 9.7 | 0.00 | 0.00 | 0.00 | ||
| 20260508131004 | 15 | 231 | 8.0 | 16.1 | 0.00 | 0.00 | 0.00 | ||
| 20260508130003 | 11 | 189 | 1.6 | 11.3 | 0.00 | 0.00 | 0.00 | ||
| 20260508125002 | 9 | 184 | 0.0 | 8.0 | 0.00 | 0.00 | 0.00 | ||
| 20260508124002 | 8 | 291 | 0.0 | 8.0 | 0.00 | 0.00 | 0.00 | ||
| 20260508123004 | 7 | 217 | 1.6 | 6.4 | 0.00 | 0.00 | 0.00 | ||
| 20260508122002 | 6 | 198 | 0.0 | 4.8 | 0.00 | 0.00 | 0.00 | ||
| 20260508121002 | 5 | 333 | 0.0 | 0.0 | 0.00 | 0.00 | 0.00 | ||
| 20260508115002 | 3 | 333 | 0.0 | 0.0 | 0.00 | 0.00 | 0.00 | ||
| 20260508114004 | 2 | 333 | 0.0 | 0.0 | 0.00 | 0.00 | 0.00 | ||
| 20260508113002 | 2 | 333 | 0.0 | 0.0 | 0.00 | 0.00 | 0.00 | ||
| 20260508112003 | 2 | 333 | 0.0 | 0.0 | 0.00 | 0.00 | 0.00 | ||
| 20260508111003 | 2 | 333 | 0.0 | 0.0 | 0.00 | 0.00 | 0.00 | ||
| 20260508110002 | 1 | 333 | 0.0 | 0.0 | 0.00 | 0.00 | 0.00 | ||
| 20260508105023 | 1 | 333 | 0.0 | 0.0 | 0.00 | 0.00 | 0.00 | ||
| 20260508104002 | 1 | 333 | 0.0 | 0.0 | 0.00 | 0.00 | 0.00 | ||
| 20260508103002 | 1 | 333 | 0.0 | 0.0 | 0.00 | 0.00 | 0.00 | ||
| 20260508102002 | 1 | 333 | 0.0 | 0.0 | 0.00 | 0.00 | 0.00 | ||
| 20260508101003 | 2 | 333 | 0.0 | 0.0 | 0.00 | 0.00 | 0.00 | ||
| 20260508100002 | 2 | 333 | 0.0 | 0.0 | 0.00 | 0.00 | 0.00 | ||
| 20260508095002 | 2 | 333 | 0.0 | 0.0 | 0.00 | 0.00 | 0.00 | ||
| 20260508094003 | 2 | 333 | 0.0 | 0.0 | 0.00 | 0.00 | 0.00 | ||
| 20260508093003 | 2 | 333 | 0.0 | 0.0 | 0.00 | 0.00 | 0.00 | ||
| 20260508092002 | 2 | 333 | 0.0 | 0.0 | 0.00 | 0.00 | 0.00 | ||
| 20260508091002 | 2 | 333 | 0.0 | 0.0 | 0.00 | 0.00 | 0.00 | ||
| 20260508090002 | 2 | 333 | 0.0 | 0.0 | 0.00 | 0.00 | 0.00 | ||
| 20260508085002 | 2 | 333 | 0.0 | 0.0 | 0.00 | 0.00 | 0.00 | ||
| 20260508084003 | 2 | 333 | 0.0 | 0.0 | 0.00 | 0.00 | 0.00 | ||
| 20260508083002 | 2 | 333 | 0.0 | 0.0 | 0.00 | 0.00 | 0.00 | ||
| 20260508082003 | 2 | 333 | 0.0 | 0.0 | 0.00 | 0.00 | 0.00 | ||
| 20260508081002 | 2 | 333 | 0.0 | 0.0 | 0.00 | 0.00 | 0.00 | ||
| 20260508080025 | 2 | 333 | 0.0 | 0.0 | 0.00 | 0.00 | 0.00 | ||
| 20260508075003 | 2 | 333 | 0.0 | 0.0 | 0.00 | 0.00 | 0.00 | ||
| 20260508074023 | 2 | 333 | 0.0 | 0.0 | 0.00 | 0.00 | 0.00 | ||
| 20260508073004 | 2 | 333 | 0.0 | 0.0 | 0.00 | 0.00 | 0.00 | ||
| 20260508072002 | 2 | 333 | 0.0 | 0.0 | 0.00 | 0.00 | 0.00 | ||
| 20260508071024 | 2 | 333 | 0.0 | 0.0 | 0.00 | 0.00 | 0.00 | ||
| 20260508070005 | 2 | 333 | 0.0 | 0.0 | 0.00 | 0.00 | 0.00 | ||
| 20260508065003 | 2 | 333 | 0.0 | 0.0 | 0.00 | 0.00 | 0.00 | ||
| 20260508064023 | 2 | 333 | 0.0 | 0.0 | 0.00 | 0.00 | 0.00 | ||
| 20260508063003 | 2 | 333 | 0.0 | 0.0 | 0.00 | 0.00 | 0.00 | ||
| 20260508062002 | 3 | 333 | 0.0 | 0.0 | 0.00 | 0.00 | 0.00 | ||
| 20260508061046 | 3 | 333 | 0.0 | 0.0 | 0.00 | 0.00 | 0.00 | ||
| 20260508060024 | 3 | 333 | 0.0 | 0.0 | 0.00 | 0.00 | 0.00 | ||
| 20260508055003 | 3 | 333 | 0.0 | 0.0 | 0.00 | 0.00 | 0.00 | ||
| 20260508054003 | 3 | 333 | 0.0 | 0.0 | 0.00 | 0.00 | 0.00 | ||
| 20260508053003 | 3 | 333 | 0.0 | 0.0 | 0.00 | 0.00 | 0.00 | ||
| 20260508052002 | 3 | 333 | 0.0 | 0.0 | 0.00 | 0.00 | 0.00 | ||
| 20260508051004 | 3 | 333 | 0.0 | 0.0 | 0.00 | 0.00 | 0.00 | ||
| 20260508050002 | 3 | 333 | 0.0 | 0.0 | 0.00 | 0.00 | 0.00 | ||
| 20260508045003 | 3 | 333 | 0.0 | 0.0 | 0.00 | 0.00 | 0.00 | ||
| 20260508044004 | 3 | 333 | 0.0 | 0.0 | 0.00 | 0.00 | 0.00 | ||
| 20260508043003 | 3 | 333 | 0.0 | 0.0 | 0.00 | 0.00 | 0.00 | ||
| 20260508042002 | 4 | 333 | 0.0 | 0.0 | 0.00 | 0.00 | 0.00 | ||
| 20260508041003 | 4 | 333 | 0.0 | 0.0 | 0.00 | 0.00 | 0.00 | ||
| 20260508040003 | 4 | 333 | 0.0 | 0.0 | 0.00 | 0.00 | 0.00 | ||
| 20260508035002 | 4 | 333 | 0.0 | 0.0 | 0.00 | 0.00 | 0.00 | ||
| 20260508034004 | 4 | 333 | 0.0 | 0.0 | 0.00 | 0.00 | 0.00 | ||
| 20260508033003 | 4 | 333 | 0.0 | 0.0 | 0.00 | 0.00 | 0.00 |